KA2FNK Weather Reports


time (UTC)temp
C
wind
direction
speed
KPH
gust
KPH
rain 1hr
cm
rain 24hr
cm
rain mn
cm
humidity
%
barometer
mb
20260906175105 34 73 0.0 8.0 0.00 0.00 0.00 44 1014.8
20260906174552 34 176 0.0 0.0 0.00 0.00 0.00 44 1014.8
20260906174039 35 176 0.0 0.0 0.00 0.00 0.00 44 1014.9
20260906173526 35 176 0.0 0.0 0.00 0.00 0.00 42 1015.0
20260906173013 34 176 0.0 0.0 0.00 0.00 0.00 43 1015.1
20260906172500 34 176 0.0 0.0 0.00 0.00 0.00 46 1015.2
20260906171947 34 176 0.0 0.0 0.00 0.00 0.00 46 1015.3
20260906171434 33 176 0.0 0.0 0.00 0.00 0.00 46 1015.3
20260906170921 33 176 0.0 0.0 0.00 0.00 0.00 46 1015.4
20260906170408 33 176 0.0 3.2 0.00 0.00 0.00 45 1015.4
20260906165855 34 176 0.0 0.0 0.00 0.00 0.00 46 1015.5
20260906165342 34 176 0.0 6.4 0.00 0.00 0.00 46 1015.6
20260906164829 34 55 0.0 0.0 0.00 0.00 0.00 46 1015.6
20260906164316 33 55 0.0 0.0 0.00 0.00 0.00 48 1015.7
20260906163803 33 55 0.0 0.0 0.00 0.00 0.00 49 1015.7
20260906163250 32 55 0.0 0.0 0.00 0.00 0.00 50 1015.7
20260906162737 32 55 0.0 0.0 0.00 0.00 0.00 52 1015.7
20260906162224 32 55 0.0 0.0 0.00 0.00 0.00 51 1015.7
20260906161711 32 55 0.0 0.0 0.00 0.00 0.00 51 1015.7
20260906161158 32 55 0.0 4.8 0.00 0.00 0.00 51 1015.7
20260906160645 31 79 0.0 9.7 0.00 0.00 0.00 52 1015.7
20260906160132 31 66 0.0 0.0 0.00 0.00 0.00 53 1015.7
20260906155619 31 66 0.0 0.0 0.00 0.00 0.00 52 1015.6
20260906155106 31 66 0.0 0.0 0.00 0.00 0.00 55 1015.6
20260906154553 31 66 0.0 0.0 0.00 0.00 0.00 53 1015.6
20260906154040 31 66 0.0 0.0 0.00 0.00 0.00 54 1015.5
20260906153926 31 66 0.0 4.8 0.00 0.00 0.00 56 1015.5
20260906153527 31 66 0.0 4.8 0.00 0.00 0.00 56 1015.5
20260906153014 31 30 0.0 0.0 0.00 0.00 0.00 56 1015.5
20260906152501 31 30 0.0 0.0 0.00 0.00 0.00 56 1015.5
20260906151948 30 30 0.0 0.0 0.00 0.00 0.00 58 1015.4
20260906151435 30 30 0.0 0.0 0.00 0.00 0.00 60 1015.5
20260906150922 30 30 0.0 3.2 0.00 0.00 0.00 61 1015.4
20260906150409 30 41 0.0 0.0 0.00 0.00 0.00 61 1015.5
20260906145856 29 41 0.0 0.0 0.00 0.00 0.00 62 1015.5
20260906145343 29 41 0.0 6.4 0.00 0.00 0.00 62 1015.6
20260906144830 29 65 0.0 12.9 0.00 0.00 0.00 62 1015.6
20260906144317 29 65 0.0 6.4 0.00 0.00 0.00 63 1015.6
20260906143804 28 93 0.0 8.0 0.00 0.00 0.00 64 1015.6
20260906143251 28 89 0.0 4.8 0.00 0.00 0.00 64 1015.5
20260906142738 28 48 1.6 12.9 0.00 0.00 0.00 63 1015.6
20260906142225 28 72 0.0 4.8 0.00 0.00 0.00 65 1015.5
20260906141712 28 56 3.2 8.0 0.00 0.00 0.00 65 1015.5
20260906141159 28 65 3.2 9.7 0.00 0.00 0.00 65 1015.5
20260906140646 27 73 0.0 11.3 0.00 0.00 0.00 66 1015.5
20260906140133 27 86 0.0 8.0 0.00 0.00 0.00 66 1015.4
20260906135620 27 60 0.0 6.4 0.00 0.00 0.00 66 1015.4
20260906135107 27 86 0.0 0.0 0.00 0.00 0.00 67 1015.5
20260906134554 27 86 0.0 0.0 0.00 0.00 0.00 66 1015.4
20260906134041 27 86 0.0 0.0 0.00 0.00 0.00 68 1015.4
20260906133528 27 86 0.0 0.0 0.00 0.00 0.00 69 1015.4
20260906133015 26 86 0.0 0.0 0.00 0.00 0.00 69 1015.3
20260906132502 26 86 0.0 0.0 0.00 0.00 0.00 70 1015.2
20260906131949 26 86 0.0 0.0 0.00 0.00 0.00 70 1015.1
20260906131436 26 86 0.0 0.0 0.00 0.00 0.00 71 1015.1
20260906130923 26 86 0.0 0.0 0.00 0.00 0.00 71 1015.0
20260906130410 26 86 0.0 0.0 0.00 0.00 0.00 71 1015.0
20260906125857 26 86 0.0 0.0 0.00 0.00 0.00 72 1015.0
20260906125344 26 86 0.0 0.0 0.00 0.00 0.00 72 1015.1
20260906124831 26 86 0.0 0.0 0.00 0.00 0.00 72 1015.0
20260906124318 26 86 0.0 0.0 0.00 0.00 0.00 72 1014.9
20260906123805 26 86 0.0 0.0 0.00 0.00 0.00 70 1014.8
20260906123252 26 86 0.0 0.0 0.00 0.00 0.00 70 1014.7
20260906122739 26 86 0.0 0.0 0.00 0.00 0.00 69 1014.6
20260906122226 26 86 0.0 0.0 0.00 0.00 0.00 70 1014.6
20260906121713 25 86 0.0 0.0 0.00 0.00 0.00 71 1014.4
20260906121200 25 86 0.0 0.0 0.00 0.00 0.00 71 1014.4
20260906120647 25 86 0.0 0.0 0.00 0.00 0.00 71 1014.6
20260906120134 25 86 0.0 0.0 0.00 0.00 0.00 72 1014.5
20260906115621 25 86 0.0 0.0 0.00 0.00 0.00 72 1014.5
20260906115108 25 86 0.0 0.0 0.00 0.00 0.00 72 1014.5
20260906114555 25 86 0.0 0.0 0.00 0.00 0.00 72 1014.4
20260906114042 25 86 0.0 0.0 0.00 0.00 0.00 72 1014.4
20260906113529 26 86 0.0 0.0 0.00 0.00 0.00 71 1014.4
20260906113016 26 86 0.0 0.0 0.00 0.00 0.00 71 1014.3
20260906112503 26 86 0.0 0.0 0.00 0.00 0.00 71 1014.3
20260906111950 26 86 0.0 0.0 0.00 0.00 0.00 71 1014.1
20260906111437 25 86 0.0 0.0 0.00 0.00 0.00 71 1014.1
20260906110924 26 86 0.0 0.0 0.00 0.00 0.00 72 1014.2
20260906110411 26 86 0.0 0.0 0.00 0.00 0.00 71 1014.3
20260906105858 26 86 0.0 0.0 0.00 0.00 0.00 71 1014.2
20260906105345 26 86 0.0 0.0 0.00 0.00 0.00 71 1014.2
20260906104832 26 86 0.0 0.0 0.00 0.00 0.00 70 1014.2
20260906104319 26 86 0.0 0.0 0.00 0.00 0.00 70 1014.2
20260906103806 26 86 0.0 0.0 0.00 0.00 0.00 69 1014.1
20260906103253 26 86 0.0 0.0 0.00 0.00 0.00 68 1014.0
20260906102740 26 86 0.0 0.0 0.00 0.00 0.00 68 1014.0
20260906102227 26 86 0.0 0.0 0.00 0.00 0.00 67 1014.1
20260906101714 26 86 0.0 0.0 0.00 0.00 0.00 67 1014.1
20260906101201 26 86 0.0 0.0 0.00 0.00 0.00 68 1014.1
20260906100648 26 86 0.0 0.0 0.00 0.00 0.00 67 1014.0
20260906100135 26 86 0.0 0.0 0.00 0.00 0.00 66 1014.0
20260906095622 26 86 0.0 0.0 0.00 0.00 0.00 67 1014.0
20260906095109 26 86 0.0 0.0 0.00 0.00 0.00 67 1014.0
20260906094556 26 86 0.0 0.0 0.00 0.00 0.00 67 1013.9
20260906094043 26 86 0.0 0.0 0.00 0.00 0.00 67 1013.9
20260906093530 26 86 0.0 0.0 0.00 0.00 0.00 67 1013.9
20260906093017 26 86 0.0 0.0 0.00 0.00 0.00 67 1013.9
20260906092504 26 86 0.0 0.0 0.00 0.00 0.00 67 1013.8
20260906091951 26 86 0.0 0.0 0.00 0.00 0.00 67 1013.8
20260906091438 26 86 0.0 0.0 0.00 0.00 0.00 67 1013.8
20260906090925 26 86 0.0 0.0 0.00 0.00 0.00 67 1013.8
20260906090412 26 86 0.0 0.0 0.00 0.00 0.00 66 1013.7
20260906085859 26 86 0.0 0.0 0.00 0.00 0.00 66 1013.7
20260906085346 26 86 0.0 0.0 0.00 0.00 0.00 67 1013.7
20260906084833 26 86 0.0 0.0 0.00 0.00 0.00 67 1013.6
20260906084320 26 86 0.0 0.0 0.00 0.00 0.00 67 1013.6
20260906084144 26 86 0.0 0.0 0.00 0.00 0.00 67 1013.6
20260906083807 26 86 0.0 0.0 0.00 0.00 0.00 67 1013.6
20260906083536 26 86 0.0 0.0 0.00 0.00 0.00 66 1013.4
20260906083254 26 86 0.0 0.0 0.00 0.00 0.00 66 1013.4
20260906082741 27 86 0.0 0.0 0.00 0.00 0.00 65 1013.4
20260906082228 27 86 0.0 0.0 0.00 0.00 0.00 65 1013.4
20260906081715 27 86 0.0 0.0 0.00 0.00 0.00 65 1013.4
20260906081202 27 86 0.0 0.0 0.00 0.00 0.00 65 1013.6
20260906080649 27 86 0.0 0.0 0.00 0.00 0.00 65 1013.6
20260906080136 26 86 0.0 0.0 0.00 0.00 0.00 65 1013.4
20260906075623 27 86 0.0 0.0 0.00 0.00 0.00 65 1013.4
20260906075110 27 86 0.0 0.0 0.00 0.00 0.00 65 1013.4
20260906074557 27 86 0.0 0.0 0.00 0.00 0.00 65 1013.4
20260906074044 27 86 0.0 0.0 0.00 0.00 0.00 64 1013.4
20260906073531 27 86 0.0 0.0 0.00 0.00 0.00 63 1013.4
20260906073018 27 86 0.0 0.0 0.00 0.00 0.00 62 1013.3
20260906072505 27 86 0.0 0.0 0.00 0.00 0.00 61 1013.4
20260906071952 27 86 0.0 0.0 0.00 0.00 0.00 60 1013.4
20260906071439 28 86 0.0 0.0 0.00 0.00 0.00 59 1013.4
20260906070926 28 86 0.0 0.0 0.00 0.00 0.00 59 1013.6
20260906070413 28 86 0.0 0.0 0.00 0.00 0.00 59 1013.6
20260906070249 28 86 0.0 0.0 0.00 0.00 0.00 60 1013.6
20260906065900 28 86 0.0 0.0 0.00 0.00 0.00 60 1013.6
20260906065347 27 86 0.0 0.0 0.00 0.00 0.00 62 1013.6
20260906065034 27 86 0.0 0.0 0.00 0.00 0.00 62 1013.6
20260906064834 27 86 0.0 0.0 0.00 0.00 0.00 62 1013.6
20260906064321 27 86 0.0 0.0 0.00 0.00 0.00 62 1013.7
20260906063808 27 86 0.0 0.0 0.00 0.00 0.00 62 1013.8
20260906063255 27 86 0.0 0.0 0.00 0.00 0.00 62 1013.7
20260906063026 27 86 0.0 0.0 0.00 0.00 0.00 62 1013.8
20260906062742 27 86 0.0 0.0 0.00 0.00 0.00 62 1013.8
20260906062229 27 86 0.0 0.0 0.00 0.00 0.00 62 1013.8
20260906061716 27 86 0.0 0.0 0.00 0.00 0.00 61 1013.9
20260906061203 28 86 0.0 0.0 0.00 0.00 0.00 61 1013.9
20260906060650 28 86 0.0 0.0 0.00 0.00 0.00 61 1013.8
20260906060137 28 86 0.0 0.0 0.00 0.00 0.00 61 1013.9
20260906055624 28 86 0.0 0.0 0.00 0.00 0.00 61 1013.9
20260906055111 28 86 0.0 0.0 0.00 0.00 0.00 60 1013.9
20260906054558 28 86 0.0 0.0 0.00 0.00 0.00 60 1013.9
20260906054045 28 86 0.0 0.0 0.00 0.00 0.00 60 1014.0
20260906053532 28 86 0.0 0.0 0.00 0.00 0.00 60 1014.0
20260906053019 28 86 0.0 0.0 0.00 0.00 0.00 59 1014.0
20260906052506 28 86 0.0 0.0 0.00 0.00 0.00 59 1014.0
20260906051953 28 86 0.0 0.0 0.00 0.00 0.00 58 1014.1
20260906051440 28 86 0.0 0.0 0.00 0.00 0.00 58 1014.0
20260906050927 28 86 0.0 0.0 0.00 0.00 0.00 58 1014.0
20260906050414 28 86 0.0 0.0 0.00 0.00 0.00 59 1014.0
20260906045901 29 86 0.0 0.0 0.00 0.00 0.00 58 1013.9
20260906045348 29 86 0.0 0.0 0.00 0.00 0.00 57 1013.9
20260906044835 29 86 0.0 0.0 0.00 0.00 0.00 58 1013.9
20260906044322 28 86 0.0 0.0 0.00 0.00 0.00 58 1014.0
20260906043809 29 86 0.0 0.0 0.00 0.00 0.00 58 1014.0
20260906043256 29 86 0.0 0.0 0.00 0.00 0.00 58 1014.0
20260906042743 29 86 0.0 0.0 0.00 0.00 0.00 58 1014.0
20260906042230 29 86 0.0 0.0 0.00 0.00 0.00 58 1013.9
20260906041717 29 86 0.0 0.0 0.00 0.00 0.00 57 1013.8
20260906041204 29 86 0.0 0.0 0.00 0.00 0.00 57 1013.8
20260906040651 30 86 0.0 0.0 0.00 0.00 0.00 57 1013.7
20260906040138 30 86 0.0 0.0 0.00 0.00 0.00 57 1013.8
20260906035625 30 86 0.0 0.0 0.00 0.00 0.00 57 1013.7
20260906035112 30 86 0.0 0.0 0.00 0.00 0.00 57 1013.7
20260906034559 30 86 0.0 0.0 0.00 0.00 0.00 57 1013.7
20260906034046 30 86 0.0 0.0 0.00 0.00 0.00 56 1013.6
20260906033533 30 86 0.0 0.0 0.00 0.00 0.00 56 1013.6
20260906033020 30 86 0.0 0.0 0.00 0.00 0.00 56 1013.4
20260906032507 30 86 0.0 0.0 0.00 0.00 0.00 56 1013.3
20260906031954 30 86 0.0 0.0 0.00 0.00 0.00 56 1013.3
20260906031441 30 86 0.0 0.0 0.00 0.00 0.00 57 1013.3
20260906030928 30 86 0.0 0.0 0.00 0.00 0.00 57 1013.3
20260906030415 30 86 0.0 0.0 0.00 0.00 0.00 55 1013.3
20260906025902 30 86 0.0 0.0 0.00 0.00 0.00 55 1013.2
20260906025349 30 86 0.0 0.0 0.00 0.00 0.00 55 1013.1
20260906024836 30 86 0.0 0.0 0.00 0.00 0.00 54 1013.1
20260906024323 30 86 0.0 0.0 0.00 0.00 0.00 54 1013.0
20260906023810 30 86 0.0 0.0 0.00 0.00 0.00 54 1013.0
20260906023257 30 86 0.0 0.0 0.00 0.00 0.00 54 1013.0
20260906022744 30 86 0.0 0.0 0.00 0.00 0.00 54 1012.8
20260906022231 30 86 0.0 0.0 0.00 0.00 0.00 53 1012.8
20260906021718 30 86 0.0 0.0 0.00 0.00 0.00 53 1012.7
20260906021205 31 86 0.0 0.0 0.00 0.00 0.00 53 1012.6
20260906020652 31 86 0.0 0.0 0.00 0.00 0.00 52 1012.6
20260906020139 31 86 0.0 0.0 0.00 0.00 0.00 52 1012.5
20260906015626 31 86 0.0 0.0 0.00 0.00 0.00 52 1012.5
20260906015113 31 86 0.0 0.0 0.00 0.00 0.00 52 1012.4
20260906014600 31 86 0.0 0.0 0.00 0.00 0.00 52 1012.4
20260906014047 31 86 0.0 0.0 0.00 0.00 0.00 51 1012.3
20260906013534 31 86 0.0 0.0 0.00 0.00 0.00 50 1012.2
20260906013021 31 86 0.0 0.0 0.00 0.00 0.00 51 1012.2
20260906012508 31 86 0.0 0.0 0.00 0.00 0.00 51 1012.2
20260906011955 31 86 0.0 0.0 0.00 0.00 0.00 51 1012.1
20260906011442 31 86 0.0 0.0 0.00 0.00 0.00 51 1012.1
20260906010929 31 86 0.0 0.0 0.00 0.00 0.00 50 1012.1
20260906010416 32 86 0.0 0.0 0.00 0.00 0.00 50 1012.1
20260906005903 32 86 0.0 0.0 0.00 0.00 0.00 49 1012.1
20260906005350 32 86 0.0 0.0 0.00 0.00 0.00 49 1012.1
20260906004837 32 86 0.0 0.0 0.00 0.00 0.00 48 1012.2
20260906004324 32 86 0.0 0.0 0.00 0.00 0.00 48 1012.1
20260906003811 32 86 0.0 0.0 0.00 0.00 0.00 48 1012.1
20260906003258 32 86 0.0 0.0 0.00 0.00 0.00 48 1012.0
20260906002745 32 86 0.0 0.0 0.00 0.00 0.00 48 1012.0
20260906002232 32 86 0.0 0.0 0.00 0.00 0.00 47 1012.1
20260906001719 32 86 0.0 0.0 0.00 0.00 0.00 46 1012.1
20260906001206 33 86 0.0 0.0 0.00 0.00 0.00 46 1012.1
20260906000653 33 86 0.0 0.0 0.00 0.00 0.00 45 1012.0
20260906000140 33 86 0.0 0.0 0.00 0.00 0.00 45 1012.0
20260905235627 33 86 0.0 0.0 0.00 0.00 0.00 44 1012.1
20260905235114 33 86 0.0 0.0 0.00 0.00 0.00 44 1012.1
20260905234601 33 86 0.0 0.0 0.00 0.00 0.00 43 1012.0
20260905234048 34 86 0.0 0.0 0.00 0.00 0.00 42 1012.0
20260905233535 34 86 0.0 0.0 0.00 0.00 0.00 41 1011.9
20260905233022 35 86 0.0 0.0 0.00 0.00 0.00 41 1011.9
20260905232509 35 86 0.0 0.0 0.00 0.00 0.00 39 1011.9
20260905231956 35 86 0.0 0.0 0.00 0.00 0.00 39 1011.8
20260905231443 35 86 0.0 0.0 0.00 0.00 0.00 38 1011.8
20260905230930 35 86 0.0 0.0 0.00 0.00 0.00 39 1011.8
20260905230417 35 86 0.0 0.0 0.00 0.00 0.00 40 1011.9
20260905225904 35 86 0.0 0.0 0.00 0.00 0.00 39 1011.9
20260905225351 35 86 0.0 0.0 0.00 0.00 0.00 41 1011.8
20260905224838 35 86 0.0 8.0 0.00 0.00 0.00 41 1011.8
20260905224325 35 68 6.4 6.4 0.00 0.00 0.00 39 1011.7
20260905223812 35 20 0.0 0.0 0.00 0.00 0.00 41 1011.8
20260905223259 35 20 0.0 0.0 0.00 0.00 0.00 39 1011.8
20260905222746 35 20 0.0 3.2 0.00 0.00 0.00 39 1011.8
20260905222233 34 20 0.0 0.0 0.00 0.00 0.00 40 1011.9
20260905221720 34 20 0.0 0.0 0.00 0.00 0.00 39 1011.9
20260905221207 34 20 0.0 0.0 0.00 0.00 0.00 40 1012.0
20260905220654 33 20 0.0 4.8 0.00 0.00 0.00 41 1011.9
20260905220141 33 11 0.0 0.0 0.00 0.00 0.00 41 1012.0
20260905215628 33 11 0.0 0.0 0.00 0.00 0.00 42 1012.1
20260905215115 34 360 3.2 11.3 0.00 0.00 0.00 41 1012.1
20260905214602 35 13 0.0 0.0 0.00 0.00 0.00 41 1012.2
20260905214049 35 13 0.0 14.5 0.00 0.00 0.00 37 1012.3
20260905213536 35 86 0.0 0.0 0.00 0.00 0.00 34 1012.3
20260905213023 35 86 0.0 6.4 0.00 0.00 0.00 33 1012.4
20260905212510 35 79 0.0 0.0 0.00 0.00 0.00 36 1012.4
20260905211957 35 79 0.0 0.0 0.00 0.00 0.00 35 1012.5
20260905211444 35 79 0.0 0.0 0.00 0.00 0.00 33 1012.5
20260905210931 36 79 0.0 0.0 0.00 0.00 0.00 34 1012.6
20260905210418 36 79 0.0 0.0 0.00 0.00 0.00 33 1012.6
20260905205905 36 79 0.0 0.0 0.00 0.00 0.00 33 1012.7
20260905205352 36 90 0.0 0.0 0.00 0.00 0.00 35 1012.8
20260905204839 36 90 0.0 0.0 0.00 0.00 0.00 35 1012.7
20260905204326 36 90 0.0 9.7 0.00 0.00 0.00 34 1012.8
20260905203813 36 65 0.0 0.0 0.00 0.00 0.00 34 1012.9
20260905203300 36 65 0.0 0.0 0.00 0.00 0.00 34 1012.9
20260905202747 36 65 0.0 0.0 0.00 0.00 0.00 35 1013.0
20260905202234 36 65 0.0 0.0 0.00 0.00 0.00 36 1013.0
20260905201721 36 65 0.0 0.0 0.00 0.00 0.00 36 1013.1
20260905201208 35 65 0.0 0.0 0.00 0.00 0.00 37 1013.2
20260905200655 35 65 0.0 0.0 0.00 0.00 0.00 40 1013.3
20260905200142 35 65 0.0 0.0 0.00 0.00 0.00 37 1013.4
20260905195629 35 65 0.0 0.0 0.00 0.00 0.00 39 1013.4
20260905195116 35 65 0.0 0.0 0.00 0.00 0.00 38 1013.6
20260905194603 35 65 0.0 0.0 0.00 0.00 0.00 36 1013.6
20260905194050 35 65 0.0 4.8 0.00 0.00 0.00 34 1013.6
20260905193537 36 201 0.0 0.0 0.00 0.00 0.00 35 1013.7
20260905193024 36 201 0.0 0.0 0.00 0.00 0.00 36 1013.7
20260905192511 36 86 0.0 6.4 0.00 0.00 0.00 35 1013.7
20260905191958 36 218 0.0 0.0 0.00 0.00 0.00 34 1013.7
20260905191445 36 218 0.0 0.0 0.00 0.00 0.00 34 1013.8
20260905190932 36 218 0.0 0.0 0.00 0.00 0.00 34 1013.8
20260905190419 36 218 0.0 0.0 0.00 0.00 0.00 34 1013.9
20260905185906 36 218 0.0 0.0 0.00 0.00 0.00 32 1014.0
20260905185353 36 218 0.0 0.0 0.00 0.00 0.00 34 1014.0
20260905184840 36 218 0.0 0.0 0.00 0.00 0.00 34 1014.1
20260905184327 36 218 0.0 4.8 0.00 0.00 0.00 34 1014.1
20260905183814 36 218 0.0 0.0 0.00 0.00 0.00 35 1014.1
20260905183301 36 218 0.0 0.0 0.00 0.00 0.00 34 1014.2
20260905182748 36 218 0.0 0.0 0.00 0.00 0.00 35 1014.3
20260905182235 36 218 0.0 0.0 0.00 0.00 0.00 35 1014.3
20260905181722 35 218 0.0 0.0 0.00 0.00 0.00 37 1014.5
20260905181209 35 218 0.0 0.0 0.00 0.00 0.00 37 1014.5
20260905180656 35 218 0.0 0.0 0.00 0.00 0.00 40 1014.6
20260905180143 35 218 0.0 0.0 0.00 0.00 0.00 39 1014.7
20260905175630 35 218 0.0 0.0 0.00 0.00 0.00 37 1014.7